CW4541 Weather Reports


Display with metric or nautical units.
time (UTC)temp
F
wind
direction
speed
MPH
gust
MPH
rain 1hr
in
rain 24hr
in
rain mn
in
humidity
%
barometer
mb
20260904060605 55 36 0.0 0.0 0.00 0.00 0.00 45 1018.7
20260904060113 55 40 0.0 0.0 0.00 0.00 0.00 45 1018.7
20260904050607 59 24 0.0 0.0 0.00 0.00 0.00 37 1018.7
20260904040112 60 22 0.0 1.0 0.00 0.00 0.00 33 1019.0
20260904030607 61 27 0.0 0.0 0.00 0.00 0.00 31 1018.9
20260904030112 61 27 0.0 0.0 0.00 0.00 0.00 31 1018.9
20260904020606 67 17 0.0 0.0 0.00 0.00 0.00 22 1018.5
20260904020114 67 17 0.0 0.0 0.00 0.00 0.00 21 1018.5
20260904010113 74 13 1.0 8.0 0.00 0.00 0.00 14 1018.8
20260904000607 77 183 1.0 9.0 0.00 0.00 0.00 13 1018.9
20260904000113 77 198 1.0 8.0 0.00 0.00 0.00 13 1018.9
20260903230606 77 191 3.0 9.0 0.00 0.00 0.00 14 1019.2
20260903230113 77 208 2.0 9.0 0.00 0.00 0.00 14 1019.1
20260903210606 77 22 2.0 10.0 0.00 0.00 0.00 17 1020.1
20260903210112 77 24 1.0 6.0 0.00 0.00 0.00 18 1020.1
20260903200607 76 18 1.0 10.0 0.00 0.00 0.00 18 1020.6
20260903200113 76 17 3.0 10.0 0.00 0.00 0.00 18 1020.7
20260903190113 74 14 2.0 9.0 0.00 0.00 0.00 20 1021.2
20260903170607 70 14 2.0 8.0 0.00 0.00 0.00 29 1022.1
20260903170112 70 13 3.0 10.0 0.00 0.00 0.00 27 1022.1
20260903160607 66 14 2.0 12.0 0.00 0.00 0.00 34 1022.0
20260903160112 66 13 3.0 12.0 0.00 0.00 0.00 32 1022.1
20260903150606 62 166 2.0 10.0 0.00 0.00 0.00 49 1021.7
20260903140606 56 172 1.0 6.0 0.00 0.00 0.00 61 1021.9
20260903140112 56 189 0.0 5.0 0.00 0.00 0.00 62 1021.9
20260903130609 51 202 0.0 1.0 0.00 0.00 0.00 68 1021.4
20260903130111 51 223 0.0 1.0 0.00 0.00 0.00 67 1021.3
20260903120112 51 203 0.0 2.0 0.00 0.00 0.00 67 1021.2
20260903110606 51 142 1.0 6.0 0.00 0.00 0.00 69 1020.7
20260903110112 51 132 0.0 6.0 0.00 0.00 0.00 71 1020.7
20260903100606 51 200 0.0 1.0 0.00 0.00 0.00 71 1020.8
20260903090606 52 186 0.0 2.0 0.00 0.00 0.00 70 1020.3
20260903090112 52 196 0.0 2.0 0.00 0.00 0.00 70 1020.4
20260903080606 52 192 0.0 1.0 0.00 0.00 0.00 71 1020.6
20260903080111 52 199 0.0 1.0 0.00 0.00 0.00 71 1020.7
20260903070606 54 196 0.0 0.0 0.00 0.00 0.00 66 1020.5
20260903070112 54 196 0.0 0.0 0.00 0.00 0.00 65 1020.5